IZ3VCM Weather Reports


Display with metric or nautical units.
time (UTC)temp
F
wind
direction
speed
MPH
gust
MPH
rain 1hr
in
rain 24hr
in
rain mn
in
humidity
%
barometer
mb
20260904200006 73 0 0.0 0.0 0.00 0.00 0.00 74 1016.2
20260904194504 74 0 0.0 0.0 0.00 0.00 0.00 71 1016.3
20260904193006 76 0 0.0 0.0 0.00 0.00 0.00 68 1016.4
20260904191504 77 135 0.0 1.0 0.00 0.00 0.00 66 1016.4
20260904190006 77 135 0.0 1.0 0.00 0.00 0.00 64 1016.2
20260904184504 80 135 1.0 2.0 0.00 0.00 0.00 60 1016.1
20260904183006 82 135 2.0 2.0 0.00 0.00 0.00 56 1016.0
20260904181504 82 135 3.0 5.0 0.00 0.00 0.00 54 1016.1
20260904180006 83 135 2.0 4.0 0.00 0.00 0.00 52 1016.0
20260904174504 85 135 3.0 3.0 0.00 0.00 0.00 52 1015.6
20260904173006 87 135 0.0 2.0 0.00 0.00 0.00 49 1015.6
20260904171504 88 135 2.0 4.0 0.00 0.00 0.00 49 1015.5
20260904170006 90 151 2.0 4.0 0.00 0.00 0.00 47 1015.7
20260904164503 91 166 6.0 10.0 0.00 0.00 0.00 46 1015.7
20260904163005 94 173 7.0 10.0 0.00 0.00 0.00 44 1015.8
20260904161504 96 135 2.0 8.0 0.00 0.00 0.00 42 1015.7
20260904160006 98 45 1.0 2.0 0.00 0.00 0.00 41 1015.7
20260904154504 98 45 1.0 4.0 0.00 0.00 0.00 42 1015.9
20260904153006 98 45 0.0 1.0 0.00 0.00 0.00 40 1015.7
20260904151504 100 0 0.0 0.0 0.00 0.00 0.00 41 1016.0
20260904150006 99 314 1.0 2.0 0.00 0.00 0.00 42 1016.2
20260904144503 100 314 1.0 4.0 0.00 0.00 0.00 38 1016.1
20260904143006 99 314 0.0 1.0 0.00 0.00 0.00 40 1016.2
20260904141504 99 255 1.0 3.0 0.00 0.00 0.00 38 1016.5
20260904140006 100 252 1.0 3.0 0.00 0.00 0.00 39 1016.5
20260904134503 98 292 1.0 4.0 0.00 0.00 0.00 39 1016.7
20260904133005 98 284 1.0 6.0 0.00 0.00 0.00 39 1016.8
20260904131504 98 0 0.0 0.0 0.00 0.00 0.00 43 1017.0
20260904130006 98 181 0.0 3.0 0.00 0.00 0.00 41 1017.1
20260904124503 98 181 0.0 3.0 0.00 0.00 0.00 41 1017.4
20260904123006 97 149 2.0 6.0 0.00 0.00 0.00 43 1017.5
20260904121504 96 152 3.0 7.0 0.00 0.00 0.00 43 1017.4
20260904120006 96 203 1.0 3.0 0.00 0.00 0.00 43 1017.7
20260904114503 96 225 1.0 2.0 0.00 0.00 0.00 43 1017.7
20260904113006 96 169 2.0 6.0 0.00 0.00 0.00 45 1017.8
20260904111504 95 163 1.0 3.0 0.00 0.00 0.00 45 1018.2
20260904110005 95 119 1.0 6.0 0.00 0.00 0.00 45 1018.2
20260904104503 95 255 1.0 3.0 0.00 0.00 0.00 47 1018.3
20260904103006 94 181 1.0 4.0 0.00 0.00 0.00 49 1018.4
20260904101503 92 135 3.0 4.0 0.00 0.00 0.00 50 1018.4
20260904100006 93 148 3.0 5.0 0.00 0.00 0.00 51 1018.6
20260904094503 91 181 2.0 4.0 0.00 0.00 0.00 53 1018.8
20260904093005 92 135 0.0 1.0 0.00 0.00 0.00 52 1018.9
20260904091504 90 124 2.0 4.0 0.00 0.00 0.00 55 1019.0
20260904090005 90 149 2.0 3.0 0.00 0.00 0.00 55 1019.2
20260904084503 89 126 2.0 4.0 0.00 0.00 0.00 56 1019.1
20260904083005 87 138 2.0 4.0 0.00 0.00 0.00 58 1018.9
20260904081503 87 128 3.0 4.0 0.00 0.00 0.00 59 1019.0
20260904080006 86 124 0.0 2.0 0.00 0.00 0.00 60 1019.1
20260904074503 86 120 1.0 4.0 0.00 0.00 0.00 62 1019.0
20260904073005 84 120 1.0 2.0 0.00 0.00 0.00 62 1018.7
20260904071503 83 116 1.0 2.0 0.00 0.00 0.00 64 1018.7
20260904070006 82 135 1.0 4.0 0.00 0.00 0.00 64 1018.8
20260903221504 76 225 2.0 4.0 0.00 0.00 0.00 72 1017.7
20260903220006 76 221 1.0 5.0 0.00 0.00 0.00 72 1017.7
20260903214504 76 202 1.0 2.0 0.00 0.00 0.00 71 1017.7
20260903213006 76 0 0.0 0.0 0.00 0.00 0.00 70 1017.8
20260903211504 77 0 0.0 0.0 0.00 0.00 0.00 69 1017.7
20260903210006 78 0 0.0 0.0 0.00 0.00 0.00 68 1017.5
20260903204504 78 157 1.0 3.0 0.00 0.00 0.00 68 1017.6
20260903203005 78 157 0.0 2.0 0.00 0.00 0.00 66 1017.4
20260903201504 79 157 3.0 3.0 0.00 0.00 0.00 65 1017.3